Tracking 23099 objects as of 13-May-2021
HD Live streaming from Space Station
objects crossing your sky now

SL-19 DEB

Track SL-19 DEB now!
10-day predictions


NORAD ID: 40791
Int'l Code: 1994-085AC
Perigee: 1,412.6 km
Apogee: 2,619.4 km
Inclination: 64.1 °
Period: 127.4 minutes
Semi major axis: 8386 km
RCS: Unknown
Launch date: December 26, 1994
Source: Commonwealth of Independent States (former USSR) (CIS)
Launch site: TYURATAM MISSILE AND SPACE COMPLEX (TTMTR)

Note: This is SATELLITE DEBRIS
aabbcc
Your satellite tracking list
Your tracking list is empty




NASA's NSSDC Master Catalog

Two Line Element Set (TLE):
1 40791U 94085AC  16032.64074536  .00046495  00000-0  73830+0 0  9992
2 40791  64.1082 107.4065 0719450 347.4562  10.9254 11.30302846 56734
Source of the keplerian elements: AFSPC